DW4879 Weather Reports


time (UTC)temp
F
wind
direction
speed
knots
gust
knots
rain 1hr
in
rain 24hr
in
rain mn
in
humidity
%
barometer
mb
20260906082009 65 72 2.6 6.1 0.00 0.00 0.00 35 1023.0
20260906081604 65 61 1.7 3.5 0.00 0.00 0.00 35 1023.0
20260906081007 65 91 0.0 2.6 0.00 0.00 0.00 34 1023.1
20260906080517 65 91 0.0 2.6 0.00 0.00 0.00 34 1023.1
20260906080025 66 87 0.9 2.6 0.00 0.00 0.00 34 1023.1
20260906075529 66 93 0.0 2.6 0.00 0.00 0.00 34 1023.1
20260906075037 66 96 1.7 3.5 0.00 0.00 0.00 34 1023.1
20260906074546 66 101 1.7 3.5 0.00 0.00 0.00 34 1023.1
20260906074053 66 93 1.7 3.5 0.00 0.00 0.00 34 1023.1
20260906073604 66 86 1.7 3.5 0.00 0.00 0.00 34 1023.1
20260906073008 65 77 1.7 2.6 0.00 0.00 0.00 34 1023.0
20260906072600 66 82 0.9 2.6 0.00 0.00 0.00 35 1023.1
20260906072003 66 118 1.7 2.6 0.00 0.00 0.00 35 1023.1
20260906071600 66 127 0.9 1.7 0.00 0.00 0.00 34 1023.1
20260906071051 66 90 0.9 1.7 0.00 0.00 0.00 34 1023.1
20260906070559 66 323 0.0 0.0 0.00 0.00 0.00 34 1023.2
20260906070051 67 323 0.0 1.7 0.00 0.00 0.00 33 1023.2
20260906065543 67 323 0.0 1.7 0.00 0.00 0.00 33 1023.1
20260906065049 67 323 0.0 1.7 0.00 0.00 0.00 33 1023.0
20260906064601 67 323 0.0 1.7 0.00 0.00 0.00 33 1023.0
20260906064104 68 309 0.0 1.7 0.00 0.00 0.00 33 1023.0
20260906063558 68 326 0.9 3.5 0.00 0.00 0.00 33 1023.0
20260906063108 68 342 1.7 3.5 0.00 0.00 0.00 32 1023.1
20260906062555 68 360 1.7 3.5 0.00 0.00 0.00 32 1023.1
20260906062103 68 344 1.7 5.2 0.00 0.00 0.00 32 1023.1
20260906061559 69 5 2.6 6.1 0.00 0.00 0.00 31 1023.1
20260906061104 69 355 2.6 7.0 0.00 0.00 0.00 32 1023.2
20260906060506 69 5 2.6 7.0 0.00 0.00 0.00 31 1023.1
20260906060039 69 16 3.5 7.8 0.00 0.00 0.00 31 1023.1
20260906055544 69 22 4.3 8.7 0.00 0.00 0.00 31 1023.1
20260906055052 69 38 3.5 8.7 0.00 0.00 0.00 31 1023.1
20260906054609 69 16 4.3 8.7 0.00 0.00 0.00 31 1023.1
20260906054050 69 5 4.3 8.7 0.00 0.00 0.00 31 1023.0
20260906053600 69 37 3.5 7.0 0.00 0.00 0.00 31 1023.1
20260906053001 70 360 3.5 7.8 0.00 0.00 0.00 31 1023.0
20260906052509 70 36 4.3 7.8 0.00 0.00 0.00 31 1023.1
20260906052002 70 11 3.5 7.8 0.00 0.00 0.00 31 1023.1
20260906051509 70 15 3.5 7.0 0.00 0.00 0.00 31 1023.1
20260906051002 70 9 2.6 7.0 0.00 0.00 0.00 32 1023.1
20260906050558 70 29 2.6 7.0 0.00 0.00 0.00 32 1023.1
20260906050001 70 10 3.5 5.2 0.00 0.00 0.00 32 1023.1
20260906045600 70 360 2.6 5.2 0.00 0.00 0.00 32 1023.1
20260906045105 70 5 3.5 4.3 0.00 0.00 0.00 32 1023.0
20260906044558 70 28 2.6 4.3 0.00 0.00 0.00 32 1023.0
20260906044048 71 30 2.6 4.3 0.00 0.00 0.00 32 1023.1
20260906043556 71 13 2.6 4.3 0.00 0.00 0.00 31 1023.1
20260906043047 71 18 1.7 3.5 0.00 0.00 0.00 31 1023.1
20260906042555 72 26 1.7 3.5 0.00 0.00 0.00 31 1023.1
20260906042047 73 21 1.7 2.6 0.00 0.00 0.00 31 1023.1
20260906041540 73 349 0.9 3.5 0.00 0.00 0.00 30 1023.0
20260906041047 73 327 1.7 3.5 0.00 0.00 0.00 30 1023.0
20260906040536 73 308 1.7 4.3 0.00 0.00 0.00 30 1022.9
20260906040044 73 313 2.6 4.3 0.00 0.00 0.00 30 1022.9
20260906035555 73 345 1.7 2.6 0.00 0.00 0.00 31 1022.9
20260906035100 74 355 0.9 2.6 0.00 0.00 0.00 30 1022.8
20260906034551 74 5 0.9 1.7 0.00 0.00 0.00 30 1022.8
20260906034058 74 355 0.9 1.7 0.00 0.00 0.00 30 1022.8
20260906033501 75 303 0.9 1.7 0.00 0.00 0.00 30 1022.8
20260906033010 75 303 0.9 2.6 0.00 0.00 0.00 29 1022.8
20260906032503 76 312 0.9 1.7 0.00 0.00 0.00 29 1022.8
20260906032010 76 312 0.0 0.9 0.00 0.00 0.00 29 1022.8
20260906031504 76 312 0.0 2.6 0.00 0.00 0.00 29 1022.7
20260906031057 76 312 0.9 2.6 0.00 0.00 0.00 29 1022.6
20260906030604 77 282 1.7 2.6 0.00 0.00 0.00 28 1022.5
20260906030005 77 256 0.0 1.7 0.00 0.00 0.00 28 1022.4
20260906025511 77 253 0.9 1.7 0.00 0.00 0.00 28 1022.4
20260906025017 77 247 0.9 1.7 0.00 0.00 0.00 28 1022.3
20260906024503 77 247 0.0 1.7 0.00 0.00 0.00 28 1022.3
20260906024009 78 254 0.9 1.7 0.00 0.00 0.00 28 1022.2
20260906023516 78 279 0.0 1.7 0.00 0.00 0.00 27 1022.2
20260906023103 78 279 0.9 1.7 0.00 0.00 0.00 27 1022.1
20260906022501 78 279 0.0 1.7 0.00 0.00 0.00 27 1022.0
20260906022009 78 279 0.0 2.6 0.00 0.00 0.00 27 1022.0
20260906021603 79 286 0.9 2.6 0.00 0.00 0.00 27 1022.0
20260906021004 79 281 0.9 1.7 0.00 0.00 0.00 26 1022.0
20260906020511 79 290 0.9 1.7 0.00 0.00 0.00 26 1022.0
20260906020057 80 290 0.9 1.7 0.00 0.00 0.00 26 1021.9
20260906015545 80 280 0.9 2.6 0.00 0.00 0.00 26 1021.8
20260906015053 80 281 0.9 2.6 0.00 0.00 0.00 26 1021.8
20260906014555 80 288 1.7 3.5 0.00 0.00 0.00 25 1021.8
20260906014053 81 286 0.9 3.5 0.00 0.00 0.00 25 1021.8
20260906013545 81 286 1.7 3.5 0.00 0.00 0.00 25 1021.9
20260906013053 81 311 0.9 6.1 0.00 0.00 0.00 25 1021.9
20260906012601 81 288 1.7 5.2 0.00 0.00 0.00 25 1021.9
20260906012050 82 295 2.6 5.2 0.00 0.00 0.00 25 1021.9
20260906011559 82 304 3.5 5.2 0.00 0.00 0.00 25 1021.9
20260906011003 82 321 2.6 7.8 0.00 0.00 0.00 25 1021.9
20260906010511 82 291 4.3 7.8 0.00 0.00 0.00 25 1021.9
20260906010108 82 296 3.5 7.0 0.00 0.00 0.00 25 1022.0
20260906005509 82 296 1.7 3.5 0.00 0.01 0.00 26 1021.9
20260906005015 82 271 1.7 3.5 0.00 0.01 0.00 26 1022.0
20260906004524 82 295 0.9 3.5 0.00 0.01 0.00 27 1022.0
20260906004031 82 212 0.9 3.5 0.00 0.01 0.00 27 1021.9
20260906003539 83 232 0.9 3.5 0.00 0.01 0.00 26 1022.0
20260906003047 83 224 0.9 3.5 0.00 0.01 0.00 26 1022.0
20260906002555 83 231 1.7 4.3 0.00 0.01 0.00 26 1021.9
20260906002047 83 273 0.9 6.1 0.00 0.01 0.00 26 1022.0
20260906001553 83 290 3.5 6.1 0.00 0.01 0.00 26 1022.0
20260906001102 84 229 0.9 6.1 0.00 0.01 0.00 26 1022.0
20260906000505 84 273 1.7 7.8 0.00 0.01 0.00 25 1022.0
20260906000101 84 195 2.6 7.8 0.00 0.01 0.00 25 1022.0
20260905235503 84 201 4.3 7.0 0.00 0.01 0.00 25 1022.0
20260905235100 84 233 0.9 8.7 0.00 0.01 0.00 26 1022.0
20260905234503 84 330 3.5 8.7 0.00 0.01 0.00 26 1022.1
20260905234103 84 260 1.7 7.0 0.00 0.01 0.00 26 1022.1
20260905233502 84 218 1.7 7.8 0.00 0.01 0.00 25 1022.1
20260905233015 85 273 4.3 7.8 0.00 0.01 0.00 24 1022.1
20260905232521 85 267 1.7 7.0 0.00 0.01 0.00 24 1022.0
20260905232021 86 311 3.5 9.6 0.00 0.01 0.00 24 1022.0
20260905231535 85 200 3.5 9.6 0.00 0.01 0.00 24 1022.1
20260905231036 85 233 3.5 10.4 0.00 0.01 0.00 25 1022.1
20260905230544 85 305 5.2 11.3 0.00 0.01 0.00 25 1022.2
20260905230117 86 306 3.5 10.4 0.00 0.01 0.00 24 1022.1
20260905225545 86 273 3.5 10.4 0.00 0.01 0.00 25 1022.1
20260905225050 86 294 3.5 9.6 0.00 0.01 0.00 25 1022.1
20260905224559 86 319 5.2 9.6 0.00 0.01 0.00 24 1022.2
20260905224001 86 286 0.9 12.2 0.00 0.01 0.00 25 1022.2
20260905223556 86 279 5.2 12.2 0.00 0.01 0.00 25 1022.2
20260905223107 87 111 2.6 7.0 0.00 0.01 0.00 25 1022.2
20260905222557 87 235 1.7 8.7 0.00 0.01 0.00 25 1022.3
20260905222047 86 188 2.6 10.4 0.00 0.01 0.00 25 1022.3
20260905221600 86 247 5.2 10.4 0.00 0.01 0.00 26 1022.4
20260905221104 86 223 4.3 9.6 0.00 0.01 0.00 26 1022.4
20260905220505 86 204 3.5 12.2 0.00 0.01 0.00 26 1022.5
20260905220055 86 302 1.7 9.6 0.00 0.01 0.00 25 1022.5
20260905215603 87 258 5.2 9.6 0.00 0.01 0.00 24 1022.7
20260905215059 87 251 2.6 9.6 0.00 0.01 0.00 25 1022.6
20260905214604 86 223 3.5 13.0 0.00 0.01 0.00 25 1022.8
20260905214006 86 285 8.7 13.0 0.00 0.01 0.00 25 1022.7
20260905213601 86 315 8.7 13.0 0.00 0.01 0.00 25 1022.8
20260905213003 87 214 7.0 13.0 0.00 0.01 0.00 25 1022.9
20260905212559 87 280 4.3 13.0 0.00 0.01 0.00 25 1023.0
20260905212002 86 132 5.2 13.0 0.00 0.01 0.00 26 1022.9
20260905211604 86 288 0.9 7.8 0.00 0.01 0.00 26 1023.0
20260905211049 87 175 2.6 12.2 0.00 0.01 0.00 26 1023.0
20260905210556 86 212 3.5 12.2 0.00 0.01 0.00 26 1023.1
20260905210105 85 294 4.3 11.3 0.00 0.01 0.00 26 1023.1
20260905205507 85 304 6.1 12.2 0.00 0.01 0.00 26 1023.3
20260905205102 86 256 7.0 12.2 0.00 0.01 0.00 27 1023.3
20260905204505 87 257 3.5 9.6 0.00 0.01 0.00 25 1023.3
20260905204103 87 200 1.7 10.4 0.00 0.01 0.00 25 1023.4
20260905203553 87 225 3.5 10.4 0.00 0.01 0.00 25 1023.6
20260905203104 87 206 5.2 10.4 0.00 0.01 0.00 25 1023.5
20260905202503 87 250 4.3 21.7 0.00 0.01 0.00 26 1023.6
20260905202008 85 202 2.6 21.7 0.00 0.01 0.00 27 1023.6
20260905201517 85 243 6.1 18.2 0.00 0.01 0.00 27 1023.6
20260905201024 85 336 2.6 10.4 0.00 0.01 0.00 27 1023.7
20260905200532 85 261 5.2 10.4 0.00 0.01 0.00 27 1023.8
20260905200041 85 250 1.7 8.7 0.00 0.01 0.00 27 1023.8
20260905195549 85 290 6.1 8.7 0.00 0.01 0.00 27 1023.8
20260905195056 86 190 3.5 8.7 0.00 0.01 0.00 27 1023.8
20260905194604 85 184 3.5 7.8 0.00 0.01 0.00 28 1023.8
20260905194008 85 260 2.6 10.4 0.00 0.01 0.00 28 1023.9
20260905193603 85 215 2.6 10.4 0.00 0.01 0.00 28 1024.0
20260905193006 85 194 5.2 11.3 0.00 0.01 0.00 28 1023.9
20260905192601 84 257 3.5 10.4 0.00 0.01 0.00 29 1024.0
20260905192004 83 287 5.2 10.4 0.00 0.01 0.00 30 1024.0
20260905191602 84 265 2.6 10.4 0.00 0.01 0.00 29 1024.1
20260905191053 84 196 3.5 8.7 0.00 0.01 0.00 29 1024.1
20260905190601 84 290 2.6 9.6 0.00 0.01 0.00 29 1024.1
20260905190004 84 265 4.3 9.6 0.00 0.01 0.00 30 1024.1
20260905185511 83 220 2.6 8.7 0.00 0.01 0.00 30 1024.2
20260905185021 82 248 2.6 11.3 0.00 0.01 0.00 31 1024.3
20260905184527 82 281 5.2 11.3 0.00 0.01 0.00 31 1024.3
20260905184035 83 290 3.5 7.0 0.00 0.01 0.00 31 1024.4
20260905183543 83 254 2.6 9.6 0.00 0.01 0.00 32 1024.4
20260905183034 82 209 4.3 9.6 0.00 0.01 0.00 32 1024.5
20260905182541 81 321 3.5 7.8 0.00 0.01 0.00 33 1024.5
20260905182046 81 339 2.6 10.4 0.00 0.01 0.00 34 1024.6
20260905181554 81 285 6.1 10.4 0.00 0.01 0.00 33 1024.7
20260905181104 81 317 6.1 8.7 0.00 0.01 0.00 34 1024.8
20260905180505 81 273 2.6 10.4 0.00 0.01 0.00 34 1024.9
20260905180059 80 275 3.5 10.4 0.00 0.01 0.00 35 1024.9
20260905175502 80 306 3.5 8.7 0.00 0.01 0.00 34 1025.0
20260905175100 80 222 2.6 8.7 0.00 0.01 0.00 36 1025.0
20260905174550 80 295 3.5 7.8 0.00 0.01 0.00 35 1025.1
20260905174058 79 296 2.6 9.6 0.00 0.01 0.00 37 1025.1
20260905173552 79 331 4.3 8.7 0.00 0.01 0.00 37 1025.2
20260905173043 79 298 3.5 8.7 0.00 0.01 0.00 37 1025.3
20260905172549 78 226 2.6 10.4 0.00 0.01 0.00 38 1025.3
20260905172057 78 296 7.8 10.4 0.00 0.01 0.00 38 1025.2
20260905171608 79 269 4.3 10.4 0.00 0.01 0.00 38 1025.3
20260905171056 79 184 2.6 7.0 0.00 0.01 0.00 39 1025.4
20260905170603 78 229 2.6 9.6 0.00 0.01 0.00 39 1025.3
20260905170055 77 290 6.1 9.6 0.00 0.01 0.00 39 1025.2
20260905165546 77 274 2.6 8.7 0.00 0.01 0.00 40 1025.3
20260905165053 77 212 2.6 8.7 0.00 0.01 0.00 40 1025.3
20260905164602 77 258 6.1 8.7 0.00 0.01 0.00 39 1025.2
20260905164009 77 306 1.7 7.0 0.00 0.01 0.00 41 1025.2
20260905163559 77 258 2.6 7.0 0.00 0.01 0.00 41 1025.2
20260905163003 77 236 2.6 5.2 0.00 0.01 0.00 42 1025.3
20260905162510 76 260 2.6 6.1 0.00 0.01 0.00 41 1025.3
20260905162018 76 316 0.9 4.3 0.00 0.01 0.00 43 1025.3
20260905161525 75 265 1.7 4.3 0.00 0.01 0.00 43 1025.3
20260905161033 75 168 0.0 5.2 0.00 0.01 0.00 45 1025.2
20260905160540 74 153 0.0 3.5 0.00 0.01 0.00 45 1025.2
20260905160049 74 174 0.9 3.5 0.00 0.01 0.00 47 1025.2
20260905155538 73 205 1.7 5.2 0.00 0.01 0.00 48 1025.1
20260905155045 73 162 3.5 5.2 0.00 0.01 0.00 49 1025.1
20260905154604 72 113 1.7 5.2 0.00 0.01 0.00 50 1025.1
20260905154102 72 120 2.6 5.2 0.00 0.01 0.00 50 1025.1
20260905153555 72 161 1.7 3.5 0.00 0.01 0.00 50 1025.1
20260905153105 72 143 1.7 5.2 0.00 0.01 0.00 50 1025.1
20260905152555 71 102 2.6 6.1 0.00 0.01 0.00 50 1025.1
20260905152045 71 138 1.7 5.2 0.00 0.01 0.00 51 1025.2
20260905151553 71 121 2.6 5.2 0.00 0.01 0.00 51 1025.0
20260905151101 70 112 2.6 6.1 0.00 0.01 0.00 51 1025.0
20260905150504 70 115 1.7 5.2 0.00 0.01 0.00 52 1024.9
20260905150113 69 118 2.6 5.2 0.00 0.01 0.00 53 1025.1
20260905145503 69 85 3.5 5.2 0.00 0.01 0.00 53 1024.9
20260905145059 68 102 1.7 6.1 0.00 0.01 0.00 54 1024.9
20260905144502 68 82 3.5 6.1 0.00 0.01 0.00 54 1024.8
20260905144101 67 97 1.7 6.1 0.00 0.01 0.00 54 1024.8
20260905143550 67 109 2.6 6.1 0.00 0.01 0.00 56 1024.8
20260905143058 66 155 2.6 5.2 0.00 0.01 0.00 55 1024.8
20260905142501 66 116 2.6 5.2 0.00 0.01 0.00 56 1024.8
20260905142009 65 127 2.6 5.2 0.00 0.01 0.00 56 1024.8
20260905141607 65 118 2.6 5.2 0.00 0.01 0.00 56 1024.8
20260905141011 64 82 1.7 3.5 0.00 0.01 0.00 57 1024.9
20260905140519 63 111 2.6 5.2 0.00 0.01 0.00 57 1024.8
20260905135502 63 121 1.7 5.2 0.00 0.01 0.00 58 1024.7
20260905135012 62 123 2.6 5.2 0.00 0.01 0.00 59 1024.6
20260905134605 62 117 2.6 5.2 0.00 0.01 0.00 59 1024.5
20260905134008 61 130 0.9 5.2 0.00 0.01 0.00 61 1024.4
20260905133604 61 114 0.9 5.2 0.00 0.01 0.00 61 1024.3
20260905133007 60 113 2.6 5.2 0.00 0.01 0.00 62 1024.3
20260905132516 60 89 1.7 5.2 0.00 0.01 0.00 62 1024.2
20260905132021 60 109 2.6 5.2 0.00 0.01 0.00 63 1024.1
20260905131533 59 119 2.6 5.2 0.00 0.01 0.00 65 1024.1
20260905131037 59 113 2.6 5.2 0.00 0.01 0.00 65 1024.1
20260905130545 59 96 2.6 4.3 0.00 0.01 0.00 65 1024.0
20260905130036 59 101 2.6 5.2 0.00 0.01 0.00 65 1024.0
20260905125543 59 92 1.7 5.2 0.00 0.01 0.00 66 1023.9
20260905125051 59 101 1.7 5.2 0.00 0.01 0.00 67 1023.9
20260905124602 59 107 0.9 2.6 0.00 0.01 0.00 67 1023.9
20260905124049 59 107 0.9 2.6 0.00 0.01 0.00 67 1023.9
20260905123557 60 105 0.9 3.5 0.00 0.01 0.00 67 1023.8
20260905123051 60 109 1.7 3.5 0.00 0.01 0.00 68 1023.8
20260905122539 60 105 2.6 3.5 0.00 0.01 0.00 68 1023.7
20260905122047 60 102 1.7 2.6 0.00 0.01 0.00 67 1023.7
20260905121537 61 102 1.7 2.6 0.00 0.01 0.00 67 1023.6
20260905121047 61 102 1.7 2.6 0.00 0.01 0.00 67 1023.6
20260905120554 61 102 1.7 2.6 0.00 0.01 0.00 67 1023.6
20260905115554 62 102 1.7 2.6 0.00 0.01 0.00 65 1023.6
20260905115059 62 102 1.7 1.7 0.00 0.01 0.00 65 1023.5
20260905114502 62 64 0.9 1.7 0.00 0.01 0.00 64 1023.6
20260905114010 63 64 0.0 1.7 0.00 0.01 0.00 64 1023.6
20260905113502 63 64 0.0 1.7 0.00 0.01 0.00 64 1023.6
20260905113012 63 64 0.0 1.7 0.00 0.01 0.00 63 1023.5
20260905112504 63 64 0.0 2.6 0.00 0.01 0.00 64 1023.5
20260905112101 63 64 0.0 2.6 0.00 0.01 0.00 64 1023.5
20260905111501 63 64 0.9 3.5 0.00 0.01 0.00 64 1023.4
20260905111057 63 64 1.7 3.5 0.00 0.01 0.00 64 1023.4
20260905110543 63 75 0.9 3.5 0.00 0.01 0.00 64 1023.5
20260905110051 63 67 1.7 3.5 0.00 0.01 0.00 64 1023.3
20260905105600 63 69 1.7 3.5 0.00 0.01 0.00 64 1023.4
20260905105004 63 61 1.7 4.3 0.00 0.01 0.00 64 1023.4
20260905104559 63 63 1.7 4.3 0.00 0.01 0.00 64 1023.3
20260905104002 63 78 1.7 6.1 0.00 0.01 0.00 64 1023.3
20260905103557 63 82 2.6 6.1 0.00 0.01 0.00 64 1023.2
20260905103105 63 41 2.6 7.0 0.00 0.01 0.00 64 1023.3
20260905102558 63 79 3.5 7.0 0.00 0.01 0.00 64 1023.2
20260905102048 63 96 2.6 7.0 0.00 0.01 0.00 64 1023.2
20260905101556 63 94 2.6 5.2 0.00 0.01 0.00 64 1023.2
20260905101106 63 76 3.5 5.2 0.00 0.01 0.00 64 1023.1
20260905100506 64 79 2.6 5.2 0.00 0.01 0.00 64 1023.1
20260905100005 64 96 2.6 5.2 0.00 0.01 0.00 63 1023.1
20260905095600 64 96 1.7 6.1 0.00 0.01 0.00 63 1023.1
20260905095003 64 105 3.5 6.1 0.00 0.01 0.00 64 1023.1
20260905094601 63 109 3.5 5.2 0.00 0.01 0.00 64 1023.1
20260905094004 64 119 2.6 5.2 0.00 0.01 0.00 64 1023.0
20260905093512 64 126 1.7 3.5 0.00 0.01 0.00 63 1023.0
20260905093003 64 118 1.7 4.3 0.00 0.01 0.00 63 1022.9
20260905092509 64 94 2.6 4.3 0.00 0.01 0.00 63 1022.8
20260905092015 64 92 1.7 4.3 0.00 0.01 0.00 63 1022.8
20260905091524 64 91 2.6 5.2 0.00 0.01 0.00 63 1022.7
20260905091031 64 93 2.6 4.3 0.00 0.01 0.00 63 1022.8
20260905090539 65 82 1.7 3.5 0.00 0.01 0.00 63 1022.8
20260905090047 65 85 1.7 3.5 0.00 0.01 0.00 63 1022.8
20260905085553 65 125 1.7 3.5 0.00 0.01 0.00 63 1022.8
20260905085101 65 115 1.7 5.2 0.00 0.01 0.00 63 1022.8
20260905084503 65 96 2.6 5.2 0.00 0.01 0.00 63 1022.9
20260905084101 65 100 1.7 3.5 0.00 0.01 0.00 63 1022.9
20260905083500 65 120 0.9 3.5 0.00 0.01 0.00 63 1022.8
20260905083057 65 120 1.7 3.5 0.00 0.01 0.00 63 1022.7
20260905082604 65 111 1.7 3.5 0.00 0.01 0.00 63 1022.8